Flag for United Kingdom Weather past 2 weeks in Swindon, England, United Kingdom

48 °F

Partly cloudy.

Feels Like: 44 °F
Forecast: N/A
Wind: 10 mph from West

Location: Brize Norton

Current Time: Nov 28, 2015 at 10:53:31 PM

Latest Report: Nov 28, 2015 at 9:50 PM

Visibility: N/A

Pressure: 29.68 "Hg

Humidity: 82%

Dew point: 43 °F

Location of SwindonLocation

Historic Weather in Swindon — Graph


Swindon temperature yesterday

Maximum temperature yesterday: 54 °F (at 9:50 AM)
Minimum temperature yesterday: 39 °F (at 10:50 PM)
Average temperature yesterday: 50 °F

Past Weeks' High & Low Weather Summary

High61 °F (Nov 17, 2:50 PM)100% (Nov 16, 9:50 PM)30.27 "Hg (Nov 16, 9:50 PM)
Low30 °F (Nov 21, 9:50 PM)48% (Nov 21, 11:50 AM)29.47 "Hg (Nov 17, 2:04 PM)
Average47 °F85%29.89 "Hg
* Reported Nov 13 8:50 PM — Nov 28 8:50 PM, Swindon, Weather by CustomWeather, © 2015

Note: Actual official high and low records may vary slightly from our data, if they occured in-between our weather recording intervals... More about our weather records


Swindon weather history for previous 24 hours

Time TempWeatherWind HumidityBarometerVisibility
8:50 PM
Sat, Nov 28
50 °FPassing clouds.13 mph76%29.65 "HgN/A
7:50 PM48 °FPartly cloudy.13 mph82%29.68 "HgN/A
6:50 PM48 °FRain showers. Partly cloudy.16 mph87%29.68 "Hg2 mi
5:50 PM46 °FSprinkles. Partly cloudy.12 mph93%29.68 "HgN/A
4:50 PM46 °FRain showers. Partly cloudy.13 mph87%29.68 "Hg2 mi
3:50 PM46 °FRain showers. Broken clouds.12 mph82%29.68 "Hg4 mi
2:50 PM46 °FLight rain. Partly sunny.14 mph76%29.74 "HgN/A
1:50 PM46 °FPartly sunny.15 mph76%29.77 "HgN/A
12:50 PM45 °FLight rain. More clouds than sun.13 mph81%29.83 "HgN/A
11:50 AM45 °FMore clouds than sun.12 mph81%29.86 "HgN/A
10:50 AM43 °FBroken clouds.10 mph81%29.89 "HgN/A
9:50 AM41 °FBroken clouds.8 mph81%29.92 "HgN/A
8:50 AM39 °FPartly sunny.8 mph81%29.92 "HgN/A
7:50 AM36 °FPassing clouds.3 mph87%29.95 "HgN/A
6:50 AM36 °FClear.5 mph87%29.95 "Hg10 mi
5:50 AM36 °FClear.3 mph87%29.95 "Hg10 mi
4:50 AM36 °FClear.5 mph81%29.95 "Hg10 mi
3:50 AM37 °FClear.6 mph75%29.92 "Hg10 mi
2:50 AM37 °FClear.7 mph81%29.92 "Hg10 mi
12:50 AM39 °FClear.8 mph70%29.89 "Hg10 mi
11:50 PM
Fri, Nov 27
39 °FPassing clouds.10 mph81%29.86 "HgN/A
10:50 PM39 °FPassing clouds.10 mph87%29.83 "HgN/A
Weather by CustomWeather, © 2015

See weather overviewHow to use our weather pages